Preview of NWS' New Version of Forecast
This preview is not operational and should not be used for support decisions.

Regional Weather Roundup (RWR)

Issued by National Weather Service (NWS)

                            
000
ASUS42 KTBW 221718
RWRFL 
FLORIDA REGIONAL WEATHER ROUNDUP
NATIONAL WEATHER SERVICE TAMPA BAY RUSKIN FL
100 PM EDT THU AUG 22 2019

NOTE: "FAIR" INDICATES FEW OR NO CLOUDS BELOW 12,000 FEET WITH NO
SIGNIFICANT WEATHER AND/OR OBSTRUCTIONS TO VISIBILITY.

FLZ001>010-012>015-112-114-115-221800-
PANHANDLE FLORIDA
  
CITY           SKY/WX    TMP DP  RH WIND       PRES   REMARKS
PENSACOLA      FAIR      86  79  79 SE8       30.05F HX  99           
PENSACOLA NAS  PTSUNNY   86  79  79 E13       30.04F HX  99           
MILTON NAS     PTSUNNY   85  77  77 SE7       30.06F HX  95           
CRESTVIEW      PTSUNNY   84  75  74 VRB5      30.09R                  
DUKE FIELD     FAIR      81  77  88 SE5       30.06F                  
VALPARAISO     FAIR      75  72  88 SE9       30.05F                  
MARY ESTHER    LGT RAIN  77  73  86 CALM      30.05                   
TRI COUNTY     PTSUNNY   90  71  53 SE7       30.07F HX  96           
PANAMA CITY    PTSUNNY   89  75  63 S9        30.06S HX  99           
TYNDALL AFB    MOSUNNY   87  76  71 S10       30.05F HX  97           
APALACHICOLA   FAIR      88  76  67 S12       30.06F HX  99           

STATION/POSITION SKY/WX   TEMP    WIND        PRES    WAVE   SWELL
                          AIR SEA DIR/SP/G            HT/PER HT/PER
                          (F)     (DEG/KT/KT) (MB)    (FT/S) (FT/S)
30.1N   87.6W              83 85   90/  8/  8 1017.3F   2/ 5   2/ 5
29.2N   88.2W              84 85  120/  2/  4 1017.5F   1/ 5   2/ 5
28.8N   86.0W                 85  100/  6/  8 1017.5F   2/ 4   2/ 4
PANAMA CITY BEAC           84 87  150/ 11/ 12 1018.7
TOWER C                    83     120/  7/  8 1018.2F
28.5N   84.5W              84      60/  6/  8 1018.7F   1/ 8   2/ 8

$$
FLZ011-016>038-118-127-128-134-139-239-221800-
NORTH FLORIDA
  
CITY           SKY/WX    TMP DP  RH WIND       PRES   REMARKS
MARIANNA       PTSUNNY   88  74  63 S7        30.05F HX  96           
TALLAHASSEE    FAIR      89  75  63 E5        30.06F HX  99           
PERRY          FAIR      91  78  66 CALM      30.07F HX 104           
LIVE OAK       MOSUNNY   90  73  58 CALM      30.07F HX  98           
CROSS CITY     FAIR      90  75  62 CALM      30.07F HX 100           
LAKE CITY      FAIR      90  70  51 S5        30.08F HX  95           
GAINESVILLE    FAIR      88  71  57 E3        30.10F                  
WILLISTON      FAIR      89  73  58 SE6       30.08S HX  97           
MAYPORT NAS    FAIR      89  76  65 E10       30.08F HX 100           
JACKSONVILLE   FAIR      90  72  55 CALM      30.07F HX  97           
JAX NAS        FAIR      90  69  50 S6        30.08F                  
JAX CECIL      MOSUNNY   95  72  46 VRB5      30.08F HX 103           
FERNANDINA BEA FAIR      87  77  71 MISG      30.08F HX  99           
ST AUGUSTINE   FAIR      87  77  72 E10       30.09F HX  99           
PALM COAST     SUNNY     90  75  62 E9        30.08F HX 100           

STATION/POSITION SKY/WX   TEMP    WIND        PRES    WAVE   SWELL
                          AIR SEA DIR/SP/G            HT/PER HT/PER
                          (F)     (DEG/KT/KT) (MB)    (FT/S) (FT/S)
SHELL POINT      NOT AVBL
KEATON BEACH               83     200/  8/ 10 1018.5F
CEDAR KEY                  82     160/  6/  7 1019.1S
FERNANDINA                 91 84              1019.7
30.7N   81.3W                 85                N/A     2/11
MAYPORT                    84 85   70/  9/ 12 1019.5
31.4N   80.9W              83 84  220/  4/  6 1019.0F   2/ 9   2/ 9
ST AUGUSTINE               83 82   80/  7/  8 1019.0F

$$
FLZ040-043>046-052-053-057-058-063-144-221800-
INTERIOR CENTRAL FLORIDA
  
CITY           SKY/WX    TMP DP  RH WIND       PRES   REMARKS
OCALA          FAIR      90  71  53 CALM      30.09F HX  96           
LEESBURG       FAIR      91  71  51 VRB5      30.08F HX  97           
SANFORD        FAIR      90  72  55 E6        30.07F HX  97           
ORLANDO EXEC   FAIR      91  73  55 CALM      30.06F HX  99           
ORLANDO INTL   FAIR      88  72  58 CALM      30.06F                  
KISSIMMEE      FAIR      90  72  55 SE8       30.07F HX  97           
WINTER HAVEN   FAIR      92  71  50 CALM      30.08F HX  98           
LAKELAND       PTSUNNY   90  72  55 N3        30.07F HX  96           
BARTOW         PTSUNNY   90  73  58 E6        30.06F HX  98           
SEBRING        FAIR      88  73  60 NE6       30.06F HX  95           
OKEECHOBEE     FAIR      88  73  62 NE7       30.05S HX  96           

$$
FLZ041-047-054-059-064-141-147-221800-
EAST CENTRAL FLORIDA
  
CITY           SKY/WX    TMP DP  RH WIND       PRES   REMARKS
ORMOND BEACH   SUNNY     86  73  66 E8        30.08F                  
DAYTONA BEACH  FAIR      89  75  63 E8        30.08F HX  99           
DELAND         FAIR      90  70  51 CALM      30.07F HX  95           
NEW SMYRNA BEA MOSUNNY   86  75  70 E9        30.10F HX  95           
JFK SPACE CTR  SUNNY     89  53  29 NE8       30.07F                  
TITUSVILLE     MOSUNNY   91  73  55 NE12      30.09S HX 100           
CAPE CANAVERAL FAIR      88  79  73 CALM      30.07F HX 102           
PATRICK AFB    FAIR      87  78  73 E9        30.07F HX  99           
MELBOURNE      PTSUNNY   89  75  63 E10       30.07F HX  99           
VERO BEACH     FAIR      88  75  65 E10G18    30.07F HX  97           
FT PIERCE      FAIR      90  75  61 NE9       30.06F HX 100           
STUART         PTSUNNY   84  75  74 NE9       30.08S                  

STATION/POSITION SKY/WX   TEMP    WIND        PRES    WAVE   SWELL
                          AIR SEA DIR/SP/G            HT/PER HT/PER
                          (F)     (DEG/KT/KT) (MB)    (FT/S) (FT/S)
28.5N   80.2W              83 84   20/  6/  8 1018.6F   2/ 6   2/ 6
28.9N   78.5W              85 86  100/  6/  8 1019.5F   2/ 8   2/ 8
TRIDENT PIER               86 84   60/  7/ 10 1020.2
28.4N   80.5W                 83                N/A     2/11
27.5N   80.2W                 84                N/A     2/ 4

$$
FLZ050-056-061-142-242-148-248-149-249-151-251-155-255-
160-260-221800-
WEST CENTRAL FLORIDA
  
CITY           SKY/WX    TMP DP  RH WIND       PRES   REMARKS
CRYSTAL RIVER  FAIR      90  72  55 NE3       30.07F HX  96           
INVERNESS      FAIR      90  75  62 CALM      30.09S HX 100           
BROOKSVILLE    FAIR      91  73  55 VRB5      30.08F HX  99           
CLEARWATER AIR FAIR      88  72  58 S5        30.06F                  
ST PETE CLEARW FAIR      90  70  51 VRB3      30.06F HX  95           
TAMPA INTL     FAIR      88  72  58 SW7       30.07F                  
PLANT CITY     PTSUNNY   90  75  62 N3        30.09F HX 100           
MACDILL AFB    FAIR      89  69  52 NE3       30.06F                  
PETER O KNIGHT PTSUNNY   91  75  59 S3        30.07F HX 102           
ST PETERSBURG  FAIR      87  74  64 E5        30.05F HX  95           
SARASOTA       PTSUNNY   90  73  57 E8        30.04F HX  98           
VENICE         FAIR      91  73  55 CALM      30.06S HX 100           

STATION/POSITION SKY/WX   TEMP    WIND        PRES    WAVE   SWELL
                          AIR SEA DIR/SP/G            HT/PER HT/PER
                          (F)     (DEG/KT/KT) (MB)    (FT/S) (FT/S)
27.3N   84.2W                 87                N/A     2/ 8
CLEARWATER BEACH           88 87  340/  1/  3 1018.6
MIDDLE TAMPA BAY           84      20/  5/  7 1018.7F
VENICE                     88 86   20/  4/  6 1017.6F

$$
FLZ066-069-070-075>078-162-262-165-265-221800-
SOUTHWEST FLORIDA AND KEYS
  
CITY           SKY/WX    TMP DP  RH WIND       PRES   REMARKS
PUNTA GORDA    FAIR      90  73  57 E6        30.06F HX  98           
FT MYERS       PTSUNNY   90  74  59 MISG      30.03F HX  99           
SOUTHWEST INTL FAIR      89  72  56 E5        30.04F HX  96           
NAPLES         FAIR      92  73  53 N8        30.02F HX 100           
MARCO ISLAND     N/A    N/A N/A N/A NE8         N/A                   
IMMOKALEE      PTSUNNY   90  73  58 NE10      30.02F HX  98           
MARATHON       FAIR      88  75  65 VRB7      30.02S HX  97           
KEY WEST NAS   FAIR      90  75  61 NE9       30.03S HX 100           
KEY WEST INTL  FAIR      89  74  60 VRB6      30.03F HX  98           

STATION/POSITION SKY/WX   TEMP    WIND        PRES    WAVE   SWELL
                          AIR SEA DIR/SP/G            HT/PER HT/PER
                          (F)     (DEG/KT/KT) (MB)    (FT/S) (FT/S)
NAPLES                     87 87              1017.1F
26.0N   85.6W              85 85   20/  4/  6 1017.7F   2/ 7   2/ 7
DRY TORTUGAS               85      50/  6/  7 1017.5F
SAND KEY                   84      20/  7/  9 1015.9F
SOMBRERO KEY               84      40/  7/  8 1016.9F
LONG KEY                   84                 1015.8F

$$
FLZ067-068-071>074-168-172>174-221800-
SOUTHEAST FLORIDA 
  
CITY           SKY/WX    TMP DP  RH WIND       PRES   REMARKS
W PALM BEACH   PTSUNNY   88  74  63 E15       30.04F HX  96           
BOCA RATON     PTSUNNY   84  75  74 E7        30.04F                  
FT LAUDER-EXEC FAIR      81  76  84 CALM      30.03F                  
FT LAUDERDALE  PTSUNNY   87  74  64 NE10      30.02F HX  95           
POMPANO BEACH  PTSUNNY   82  76  81 NE5       30.04F                  
PEMBROKE PINES FAIR      88  72  58 NE13      30.04                   
OPA LOCKA      FAIR      86  73  65 SE8       30.03F                  
MIAMI          PTSUNNY   85  72  65 VRB7      30.03F                  
WEST KENDALL   LGT RAIN  82  76  81 E12       30.02F                  
HOMESTEAD      FAIR      87  75  68 E9        30.01F HX  96           

STATION/POSITION SKY/WX   TEMP    WIND        PRES    WAVE   SWELL
                          AIR SEA DIR/SP/G            HT/PER HT/PER
                          (F)     (DEG/KT/KT) (MB)    (FT/S) (FT/S)
VIRGINIA KEY               83 89   50/  7/  9 1016.7
LAKE WORTH                 83 86  110/  9/ 12 1018.6
FOWEY ROCKS                82 86   30/  8/  9 1017.0F
SETTLEMENT POINT           84      70/ 15/ 17 1017.2F

$$